Location: Newark
(49.8348°N, 24.0280°E)
Time: 23:43:04
(UTC+00:00)

Vanguard 1 Rocket - All Passes

Search period start: 18 January 2020 00:00
Search period end: 28 January 2020 00:00
Orbit: 650 x 4226 km, 34.3° (Epoch: 17 January)

Date Brightness Start Highest point End Pass type
(mag) Time Alt. Az. Time Alt. Az. Time Alt. Az.
18 Jan - 08:37:51 10° SSW 08:46:50 27° SE 09:00:58 10° E daylight
18 Jan - 10:59:31 10° SW 11:12:39 47° SSE 11:34:30 10° ESE daylight
18 Jan - 13:24:27 10° WSW 13:41:27 47° SSW 14:05:10 10° SE daylight
18 Jan - 15:52:41 10° W 16:10:29 30° SW 16:30:19 10° SSE visible
19 Jan - 07:30:19 10° SSE 07:36:09 16° SE 07:43:58 10° E daylight
19 Jan - 09:49:21 10° SW 10:00:18 40° SSE 10:19:03 10° E daylight
19 Jan - 12:13:00 10° WSW 12:27:53 49° S 12:51:08 10° ESE daylight
19 Jan - 14:39:27 10° W 14:57:03 38° SSW 15:19:06 10° SSE daylight
19 Jan - 17:12:01 10° W 17:24:51 17° SW 17:38:12 10° SSW visible
20 Jan - 08:39:56 10° SSW 08:48:47 30° SE 09:03:18 10° E daylight
20 Jan - 11:02:09 10° WSW 11:14:49 47° S 11:36:19 10° ESE daylight
20 Jan - 13:27:13 10° W 13:43:28 43° SSW 14:06:27 10° SE daylight
20 Jan - 15:56:03 10° W 16:12:05 25° SW 16:30:17 10° S visible
21 Jan - 07:31:40 10° S 07:38:00 19° SE 07:47:05 10° E daylight
21 Jan - 09:51:53 10° SW 10:02:28 41° SSE 10:21:00 10° E daylight
21 Jan - 12:15:45 10° WSW 12:30:02 46° S 12:52:40 10° SE daylight
21 Jan - 14:42:28 10° W 14:58:53 33° SSW 15:19:42 10° SSE daylight
21 Jan - 17:18:26 10° WSW 17:26:19 12° SW 17:34:30 10° SSW visible
22 Jan - 08:42:14 10° SSW 08:50:53 32° SSE 09:05:30 10° E daylight
22 Jan - 11:04:52 10° WSW 11:17:04 46° S 11:38:01 10° ESE daylight
22 Jan - 13:30:08 10° W 13:45:30 39° SSW 14:07:28 10° SE daylight
22 Jan - 15:59:59 10° W 16:13:44 20° SW 16:29:25 10° S visible
23 Jan - 07:33:29 10° S 07:40:00 22° SE 07:49:50 10° E daylight
23 Jan - 09:54:31 10° SW 10:04:44 42° SSE 10:22:53 10° ESE daylight
23 Jan - 12:18:36 10° WSW 12:32:15 43° S 12:53:59 10° SE daylight
23 Jan - 14:45:46 10° W 15:00:45 28° SW 15:19:49 10° SSE daylight
24 Jan - 06:27:20 10° SE 06:29:42 11° SE 06:32:24 10° ESE daylight
24 Jan - 08:44:44 10° SW 08:53:06 34° SSE 09:07:38 10° E daylight
24 Jan - 11:07:41 10° WSW 11:19:23 44° S 11:39:35 10° ESE daylight
24 Jan - 13:33:11 10° W 13:47:35 34° SSW 14:08:09 10° SSE daylight
24 Jan - 16:05:00 10° WSW 16:15:27 15° SW 16:27:10 10° SSW visible
25 Jan - 07:35:38 10° SSW 07:42:09 24° SE 07:52:21 10° E daylight
25 Jan - 09:57:17 10° WSW 10:07:06 42° S 10:24:41 10° ESE daylight
25 Jan - 12:21:33 10° WSW 12:34:30 39° SSW 12:55:04 10° SE daylight
25 Jan - 14:49:29 10° W 15:02:40 23° SW 15:19:15 10° S daylight
26 Jan - 06:28:02 10° SSE 06:31:45 14° SE 06:36:29 10° ESE daylight
26 Jan - 08:47:21 10° SW 08:55:26 35° SSE 09:09:40 10° ESE daylight
26 Jan - 11:10:35 10° WSW 11:21:46 41° S 11:41:00 10° SE daylight
26 Jan - 13:36:28 10° W 13:49:42 29° SSW 14:08:23 10° SSE daylight
26 Jan - 16:14:22 10° SW 16:17:14 10° SW 16:20:11 10° SW visible
27 Jan - 07:38:01 10° SSW 07:44:25 26° SSE 07:54:45 10° ESE daylight
27 Jan - 10:00:07 10° WSW 10:09:32 40° S 10:26:23 10° ESE daylight
27 Jan - 12:24:39 10° WSW 12:36:47 34° SSW 12:55:51 10° SE daylight
27 Jan - 14:53:57 10° WSW 15:04:38 17° SW 15:17:39 10° S daylight
